User: anonymous   Login
Location: Newark
(40.4667°N, 5.6000°W)
Time: 07:20:58
(UTC+00:00)
Language:

Courier 1B Rocket - Orbit

View from above orbital plane
View from above orbital plane
View from above satellite
View from above satellite

Ground track
Ground track

The orbit data is extracted from the following two-line orbital elements,

1    59U 60013B   19317.32283281 +.00000099 +00000-0 +11284-4 0  9992
2    59 028.2492 253.5528 0189216 263.7066 094.1896 13.52971930917172
Epoch (UTC): 13 November 2019 07:44:52
Eccentricity: 0.0189216
inclination: 28.2492°
perigee height: 920 km
apogee height: 1202 km
right ascension of ascending node: 253.5528°
argument of perigee: 263.7066°
revolutions per day: 13.52971930
mean anomaly at epoch: 94.1896°
orbit number at epoch: 91717

The dashed part of the orbit path shows where the satellite is in the earth's shadow,  

DLR